Weather History for KNID - July, 2013

Change the Weather History Date:

Monday, July 15, 2013

  Actual Average Record
Temperature  
Mean Temperature 90 °F -  
Max Temperature 109 °F 100 °F 111 °F (2005)
Min Temperature 73 °F 70 °F 62 °F (2011)
Cooling Degree Days 26    
Growing Degree Days 40 (Base 50)    
Moisture  
Dew Point 38 °F    
Average Humidity 14    
Maximum Humidity 23    
Minimum Humidity 10    
Precipitation  
Precipitation 0.00 in - - ()
Sea Level Pressure  
Sea Level Pressure 29.79 in    
Wind  
Wind Speed 8 mph (South)    
Max Wind Speed 23 mph    
Max Gust Speed 32 mph    
Visibility 10 miles    
Events      
Averages and records for this station are not official NWS values.
T = Trace of Precipitation, MM = Missing Value Source: NWS Daily Summary

Daily Weather History Graph

Daily Weather History Graph

Search for Another Location

Airport or City:

Trip Planner

Search our weather history database for the weather conditions in past years. The results will help you decide how hot, cold, wet, or windy it might be!

Date:

Astronomy

Jul. 15, 2013 Rise Set
Actual Time 5:46 AM PDT 8:06 PM PDT
Civil Twilight 5:17 AM PDT 8:35 PM PDT
Nautical Twilight 4:41 AM PDT 9:11 PM PDT
Astronomical Twilight 4:01 AM PDT 9:51 PM PDT
Moon 12:54 PM PDT (7/15) No Moon Set
Length of Visible Light 15h 18m
Length of Day
14h 20m
Waxing Crescent, 46% of the Moon is Illuminated
Jul 15
Waxing Crescent
Jul 15
First Quarter
Jul 22
Full
Jul 29
Last Quarter
Aug 6
New

Hourly Weather History & Observations

Time (PDT) Temp. Dew Point Humidity Pressure Visibility Wind Dir Wind Speed Gust Speed Precip Events Conditions
12:56 AM - - N/A% 29.84 in 10.0 mi SE 3.5 mph - N/A   Clear
1:56 AM - - N/A% 29.84 in 10.0 mi SSE 6.9 mph - N/A   Clear
2:56 AM - - N/A% 29.83 in 10.0 mi South 6.9 mph - N/A   Clear
3:56 AM - - N/A% 29.83 in 10.0 mi WSW 5.8 mph - N/A   Clear
4:56 AM - - N/A% 29.84 in 10.0 mi SW 4.6 mph - N/A   Clear
5:56 AM 73.9 °F 34.0 °F 23% 29.84 in 10.0 mi SSW 6.9 mph - N/A   Partly Cloudy
6:56 AM 77.7 °F 37.4 °F 23% 29.85 in 10.0 mi WSW 4.6 mph - N/A   Partly Cloudy
7:56 AM 88.0 °F 37.8 °F 17% 29.86 in 10.0 mi Calm Calm - N/A   Clear
8:56 AM 91.0 °F 35.2 °F 14% 29.86 in 10.0 mi Calm Calm - N/A   Clear
9:56 AM 98.1 °F 36.0 °F 11% 29.86 in 10.0 mi WSW 5.8 mph - N/A   Partly Cloudy
10:56 AM 102.0 °F 36.0 °F 10% 29.85 in 10.0 mi Calm Calm - N/A   Partly Cloudy
11:56 AM 105.1 °F 37.0 °F 10% 29.83 in 10.0 mi SE 11.5 mph 18.4 mph N/A   Partly Cloudy
12:56 PM 107.1 °F 42.1 °F 11% 29.82 in 10.0 mi SSE 12.7 mph 21.9 mph N/A   Partly Cloudy
1:56 PM 107.1 °F 43.0 °F 11% 29.79 in 10.0 mi South 15.0 mph 24.2 mph N/A   Partly Cloudy
2:56 PM 108.0 °F 41.0 °F 10% 29.77 in 10.0 mi SSE 18.4 mph 27.6 mph N/A   Partly Cloudy
3:56 PM 108.0 °F 39.9 °F 10% 29.75 in 10.0 mi South 17.3 mph 32.2 mph N/A   Partly Cloudy
4:56 PM 106.0 °F 42.1 °F 11% 29.73 in 10.0 mi South 23.0 mph 32.2 mph N/A   Partly Cloudy
5:56 PM 104.0 °F 39.0 °F 11% 29.65 in 10.0 mi South 18.4 mph 25.3 mph N/A   Partly Cloudy
6:56 PM 100.9 °F 37.9 °F 11% 29.65 in 10.0 mi South 16.1 mph 26.5 mph N/A   Clear
7:56 PM 97.0 °F 36.0 °F 12% 29.68 in 10.0 mi South 11.5 mph - N/A   Clear
8:56 PM 91.9 °F 36.0 °F 14% 29.70 in 10.0 mi South 15.0 mph - N/A   Clear
9:56 PM 88.0 °F 36.0 °F 16% 29.73 in 10.0 mi South 10.4 mph - N/A   Clear
10:56 PM 87.1 °F 36.0 °F 16% 29.74 in 10.0 mi SSE 9.2 mph - N/A   Clear
11:56 PM 84.0 °F 33.1 °F 16% 29.75 in 10.0 mi South 12.7 mph - N/A   Clear